Weather in Trushniki

Russia / Perm Krai     56°22′01″N   56°03′19″E
temp.,
°C
wind,
m/s
gust,
m/s
humid.,
%
clouds,
%
prec.,
mm/h
press.,
hPa
HPBL,
m
27 february, sat
sat2723:00−20se459377 0.0 101977
02:00−19se499455 0.0 1016172
05:00−17se5128977 0.0 1013302
08:00−15se71394100 0.2 1009650
11:00−13se71194100 1.3 1007712
14:00−11se6991100 0.9 1005838
17:00−10se5891100 1.3 1005785
20:00−11ese4895100 0.5 1004305
28 february, sun
sun2823:00−13e6119199 0.8 1004304
02:00−13e5994100 0.3 1003316
05:00−13ene599295 0.4 1003315
08:00−13ene599387 0.1 1003317
11:00−11ne699292 0.3 1003410
14:00−8ne589098 0.1 1004513
17:00−8ne589199 0.3 1005604
20:00−10ne599399 0.1 1007342
1 march, mon
mon123:00−12ne599297 0.2 1010342
02:00−14ne589392 0.1 1011274
05:00−16nne489492 0.1 1013254
08:00−17nne489587 0.1 1015232
11:00−15ne469179 0.1 1017351
14:00−13nne348795 0.0 1017466
17:00−12n348897 0.1 1018473
20:00−17nne229597 0.0 101920
2 march, tue
tue223:00−20w0110078 0.0 101920
02:00−20sw2210075 0.0 101820
05:00−22ssw3410087 0.1 101767
08:00−22s49100100 0.0 1015199
11:00−18s61194100 0.1 1013353
14:00−15s71290100 0.0 1010445
17:00−13s81294100 0.1 1008516
20:00−13s71394100 0.8 1006592
3 march, wed
wed323:00−13s61294100 1.3 1005533
02:00−14s61294100 0.3 1004442
05:00−14sse51095100 0.5 1003374
08:00−13sse4995100 0.6 1001348
11:00−10sse3693100 1.3 1001373
14:00−6se2390100 0.4 1000391
17:00−5ne2294100 1.0 1000214
20:00−8n3596100 0.4 1000116